INTELSAT 19 (IS-19) (38356 NORAD) Tracking and Keplerian Element Data

This shows tracking and keplerian element data for the satellite.

Feedback or suggestion? Click here.




ElementValue
Catalog38356
NameINTELSAT 19 (IS-19)
Epoch Orbit3422
Epoch Day270.15546483
Epoch Year2021
RAAN179.5299
Inclination0.0199
Eccentricity0.0003331
Argument of Perigee17.8824
Mean Anonmoly30.7187
Mean Motion1.00271018
Decay Rate-5.8E-07
L11 38356U 12030A 21270.15546483 -.00000058 00000-0 00000+0 0 9992
L22 38356 0.0199 179.5299 0003331 17.8824 30.7187 1.00271018 34225

Live tracking and technical data element details for INTELSAT 19 (IS-19) (NORAD 38356). INTELSAT 19 (IS-19) can be tracked NOW for your location showing map with azimuth and elevation plus other details from your city location.

Track the satellite on the map from your city or location and see movement details for azimuth, elevation, latitude, longitude, range, height, and movement on the map or in text.







IsCatalogInMostPopularTable: catalog: 38356, numindb: 549
Update: records affected: 1



GetName: 38356 INTELSAT 19 (IS-19)

Hit Count: updated at: Tue, 28 Sep 2021 16:05:59 GMT